Weather History for Lumberton, NC

Change the Weather History Date:

Friday, June 14, 2013

  Actual Average Record
Temperature  
Mean Temperature 75 °F 78 °F  
Max Temperature 87 °F 88 °F 97 °F (2002)
Min Temperature 63 °F 67 °F 61 °F (2012)
Degree Days  
Heating Degree Days 0 0  
Month to date heating degree days 0 0  
Since 1 June heating degree days 0 0  
Since 1 July heating degree days 2800 2761  
Cooling Degree Days 10 13  
Month to date cooling degree days 181 158  
Year to date cooling degree days 373 408  
Since 1 June cooling degree days 181 158  
Growing Degree Days 25 (Base 50)    
Moisture  
Dew Point 59 °F    
Average Humidity 63    
Maximum Humidity 93    
Minimum Humidity 32    
Precipitation  
Precipitation 0.00 in 0.14 in 1.78 in (2006)
Month to date precipitation 6.90 2.23  
Year to date precipitation 21.39 17.30  
Sea Level Pressure  
Sea Level Pressure 29.87 in    
Wind  
Wind Speed 6 mph (NNW)    
Max Wind Speed 20 mph    
Max Gust Speed 23 mph    
Visibility 9 miles    
Events      
T = Trace of Precipitation, MM = Missing Value Source: NWS Daily Summary

Daily Weather History Graph

Daily Weather History Graph

Search for Another Location

Airport:

Trip Planner

Search our weather history database for the weather conditions in past years. The results will help you decide how hot, cold, wet, or windy it might be!

Date:

Astronomy

Jun. 14, 2013 Rise Set
Actual Time 6:02 AM EDT 8:30 PM EDT
Civil Twilight 5:33 AM EDT 8:59 PM EDT
Nautical Twilight 4:57 AM EDT 9:36 PM EDT
Astronomical Twilight 4:17 AM EDT 10:16 PM EDT
Moon 11:24 AM EDT (6/14) No Moon Set
Length of Visible Light 15h 26m
Length of Day
14h 27m
Waxing Crescent, 30% of the Moon is Illuminated
Jun 14
Waxing Crescent
Jun 16
First Quarter
Jun 23
Full
Jun 30
Last Quarter
Jul 8
New

Hourly Weather History & Observations

Time (EDT) Temp. Heat Index Dew Point Humidity Pressure Visibility Wind Dir Wind Speed Gust Speed Precip Events Conditions
12:54 AM 72.0 °F - 70.0 °F 93% 29.73 in 10.0 mi NW 5.8 mph - N/A   Mostly Cloudy
1:54 AM 72.0 °F - 70.0 °F 93% 29.75 in 10.0 mi WNW 5.8 mph - N/A   Overcast
2:54 AM 72.0 °F - 68.0 °F 87% 29.75 in 10.0 mi NNW 6.9 mph - N/A   Overcast
3:54 AM 70.0 °F - 64.9 °F 84% 29.75 in 10.0 mi NNW 10.4 mph - N/A   Mostly Cloudy
4:54 AM 68.0 °F - 63.0 °F 84% 29.76 in 10.0 mi NNW 8.1 mph - N/A   Clear
5:54 AM 66.0 °F - 60.1 °F 81% 29.78 in 10.0 mi NW 5.8 mph - N/A   Clear
6:54 AM 66.9 °F - 61.0 °F 81% 29.80 in 10.0 mi NW 4.6 mph - N/A   Clear
7:54 AM 70.0 °F - 60.1 °F 71% 29.83 in 10.0 mi WNW 5.8 mph - N/A   Clear
8:54 AM 73.9 °F - 59.0 °F 59% 29.84 in 10.0 mi NNW 11.5 mph - N/A   Clear
9:54 AM 78.1 °F - 57.0 °F 48% 29.85 in 10.0 mi NNW 12.7 mph - N/A   Clear
10:54 AM 81.0 °F 80.8 °F 55.9 °F 42% 29.86 in 10.0 mi NNW 13.8 mph 23.0 mph N/A   Clear
11:54 AM 82.0 °F 81.6 °F 55.9 °F 41% 29.86 in 10.0 mi NNE 10.4 mph - N/A   Clear
12:54 PM 84.0 °F 83.0 °F 55.9 °F 38% 29.87 in 10.0 mi North - - N/A   Clear
1:54 PM 86.0 °F 84.2 °F 54.0 °F 33% 29.87 in 10.0 mi North - - N/A   Partly Cloudy
2:54 PM 84.0 °F 83.0 °F 55.9 °F 38% 29.88 in 10.0 mi North - - N/A   Scattered Clouds
3:54 PM 84.0 °F 82.6 °F 54.0 °F 35% 29.89 in 10.0 mi North - - N/A   Partly Cloudy
4:54 PM 86.0 °F 84.2 °F 54.0 °F 33% 29.90 in 10.0 mi NNW 13.8 mph 17.3 mph N/A   Clear
5:54 PM 82.9 °F 81.9 °F 54.0 °F 37% 29.90 in 10.0 mi North 9.2 mph - N/A   Partly Cloudy
6:54 PM 81.0 °F 80.8 °F 55.9 °F 42% 29.92 in 10.0 mi North 5.8 mph - N/A   Scattered Clouds
7:04 PM 80.6 °F 80.5 °F 55.4 °F 42% 29.92 in 2.5 mi NNW 5.8 mph - N/A   Haze
7:17 PM 80.6 °F 80.5 °F 55.4 °F 42% 29.92 in 3.0 mi NNW 5.8 mph - N/A   Haze
7:49 PM 78.8 °F - 57.2 °F 47% 29.93 in 1.8 mi NNW 3.5 mph - N/A   Haze
7:54 PM 79.0 °F - 57.9 °F 48% 29.93 in 1.5 mi North 3.5 mph - N/A   Haze
7:59 PM 78.8 °F - 57.2 °F 47% 29.94 in 4.0 mi NE 3.5 mph - N/A   Haze
8:54 PM 73.9 °F - 57.9 °F 57% 29.96 in 10.0 mi Calm Calm - N/A   Clear
9:54 PM 68.0 °F - 62.1 °F 81% 29.98 in 10.0 mi Calm Calm - N/A   Clear
10:54 PM 64.9 °F - 61.0 °F 87% 30.00 in 10.0 mi Calm Calm - N/A   Clear
11:54 PM 64.0 °F - 62.1 °F 93% 30.01 in 10.0 mi Calm Calm - N/A   Clear